{"data":{"norad_id":67563,"intl_designator":"2026-016C","name":"STARLINK-36403","alt_names":[],"object_type":"PAYLOAD","status":"ACTIVE","operator":null,"country":"US","launch_date":"2026-01-25","launch_site_code":"AFWTR","launch_vehicle":null,"mission":null,"orbit_class":"UNKNOWN","rcs_meters":null,"size_class":null,"mass_kg":null,"dimensions":null,"purposes":["comms"],"wikipedia_slug":null,"has_3d_model":false,"image_url":null,"decayed_at":null,"tle_current":{"epoch":"2026-05-25T03:26:45.892608Z","epoch_age_seconds":56034,"freshness":"FRESH","line1":"1 67563U 26016C   26145.14358672  .00019927  00000+0  61780-3 0  9998","line2":"2 67563  97.2834 205.5133 0001513  76.9182 283.2229 15.33451544 18589","mean_motion":15.33451544,"eccentricity":0.0001513,"inclination_deg":97.2834,"raan_deg":205.5133,"arg_perigee_deg":76.9182,"mean_anomaly_deg":283.2229,"bstar":0.0006178,"rev_number":1858,"period_min":93.90580391238,"perigee_km":464.48825834292,"apogee_km":466.55915007201,"semimajor_km":6843.6607042075,"source":"CELESTRAK","updated_at":"2026-05-25T13:38:21.612842Z"}}}